WJA198 CYWG-CYQM

Flight info

Callsign WJA198
Flight time 3h 8m
Altitude 37000
Route RORMA DCT SIDPO DCT DEGVA DCT TADIS DCT IMIXA DCT SELBO DCT IGSAS DCT MIILS
Aircraft B738/M-SDE2E3FGHIRWXY/LB1

Departure

Time 2026-05-05 14:42
Airport Winnipeg / James Armstrong Richardson International Airport (CYWG)

Arrival

Time 2026-05-05 17:50
Airport Greater Moncton Roméo LeBlanc International Airport (CYQM)
Time Latitude Longitude Altitude Speed Heading
2026-05-05 14:12 49.90681 -97.22557 782 ft 0 kts 165°
2026-05-05 14:28 49.90689 -97.22560 782 ft 3 kts 165°
2026-05-05 14:28 49.90708 -97.22568 781 ft 3 kts 168°
2026-05-05 14:28 49.90728 -97.22574 781 ft 3 kts 171°
2026-05-05 14:28 49.90748 -97.22579 781 ft 3 kts 173°
2026-05-05 14:29 49.90759 -97.22581 780 ft 1 kts 173°
2026-05-05 14:29 49.90760 -97.22581 780 ft 0 kts 173°
2026-05-05 14:33 49.90752 -97.22593 780 ft 3 kts 240°
2026-05-05 14:33 49.90748 -97.22639 780 ft 6 kts 265°
2026-05-05 14:33 49.90742 -97.22704 781 ft 6 kts 258°
2026-05-05 14:33 49.90733 -97.22776 782 ft 8 kts 257°
2026-05-05 14:34 49.90718 -97.22886 781 ft 12 kts 261°
2026-05-05 14:34 49.90704 -97.23015 781 ft 12 kts 260°
2026-05-05 14:34 49.90691 -97.23124 781 ft 7 kts 255°
2026-05-05 14:34 49.90656 -97.23149 781 ft 7 kts 150°
2026-05-05 14:35 49.90627 -97.23081 781 ft 8 kts 127°
2026-05-05 14:35 49.90593 -97.23010 782 ft 8 kts 126°
2026-05-05 14:35 49.90562 -97.22941 783 ft 8 kts 125°
2026-05-05 14:35 49.90523 -97.22887 783 ft 8 kts 157°
2026-05-05 14:36 49.90473 -97.22889 782 ft 7 kts 194°
2026-05-05 14:36 49.90425 -97.22910 783 ft 7 kts 199°
2026-05-05 14:36 49.90379 -97.22935 783 ft 7 kts 198°
2026-05-05 14:36 49.90334 -97.22959 783 ft 7 kts 199°
2026-05-05 14:37 49.90289 -97.22982 783 ft 7 kts 197°
2026-05-05 14:37 49.90244 -97.23003 784 ft 7 kts 197°
2026-05-05 14:37 49.90202 -97.23030 784 ft 6 kts 210°
2026-05-05 14:37 49.90181 -97.23089 785 ft 6 kts 251°
2026-05-05 14:38 49.90169 -97.23154 786 ft 6 kts 253°
2026-05-05 14:38 49.90130 -97.23189 787 ft 8 kts 175°
2026-05-05 14:38 49.90074 -97.23133 787 ft 10 kts 142°
2026-05-05 14:38 49.89995 -97.23026 784 ft 23 kts 138°
2026-05-05 14:39 49.89876 -97.22853 783 ft 21 kts 130°
2026-05-05 14:39 49.89785 -97.22680 783 ft 18 kts 129°
2026-05-05 14:39 49.89732 -97.22588 785 ft 0 kts 134°
2026-05-05 14:39 49.89713 -97.22559 784 ft 6 kts 138°
2026-05-05 14:40 49.89673 -97.22555 784 ft 6 kts 207°
2026-05-05 14:40 49.89632 -97.22618 783 ft 10 kts 229°
2026-05-05 14:40 49.89589 -97.22694 784 ft 9 kts 229°
2026-05-05 14:40 49.89549 -97.22768 783 ft 9 kts 238°
2026-05-05 14:41 49.89562 -97.22854 782 ft 9 kts 309°
2026-05-05 14:41 49.89613 -97.22926 781 ft 22 kts 319°
2026-05-05 14:41 49.89917 -97.23341 787 ft 92 kts 319°
2026-05-05 14:41 49.90551 -97.24207 790 ft 151 kts 319°
2026-05-05 14:42 49.91413 -97.25403 1229 ft 176 kts 319°
2026-05-05 14:42 49.92349 -97.26750 1995 ft 190 kts 317°
2026-05-05 14:42 49.93313 -97.28173 2834 ft 191 kts 318°
2026-05-05 14:42 49.94342 -97.29684 3158 ft 211 kts 318°
2026-05-05 14:43 49.95416 -97.31259 3745 ft 214 kts 318°
2026-05-05 14:43 49.96503 -97.32857 4377 ft 216 kts 318°
2026-05-05 14:43 49.97771 -97.34066 4959 ft 218 kts 348°
2026-05-05 14:43 49.99279 -97.33757 5585 ft 225 kts 20°
2026-05-05 14:44 50.00603 -97.32372 6084 ft 241 kts 42°
2026-05-05 14:44 50.01501 -97.30027 6501 ft 265 kts 69°
2026-05-05 14:44 50.01698 -97.27159 7163 ft 277 kts 91°
2026-05-05 14:44 50.01382 -97.24175 7899 ft 283 kts 99°
2026-05-05 14:45 50.00930 -97.21168 8603 ft 287 kts 100°
2026-05-05 14:45 50.00456 -97.18132 9312 ft 291 kts 100°
2026-05-05 14:45 49.99985 -97.15056 10017 ft 294 kts 99°
2026-05-05 14:45 49.99517 -97.11904 10427 ft 308 kts 99°
2026-05-05 14:46 49.99032 -97.08543 10603 ft 329 kts 99°
2026-05-05 14:46 49.98523 -97.04974 10867 ft 346 kts 99°
2026-05-05 14:46 49.98001 -97.01289 11434 ft 352 kts 99°
2026-05-05 14:46 49.97473 -96.97554 12113 ft 355 kts 99°
2026-05-05 14:47 49.96944 -96.93805 12787 ft 358 kts 99°
2026-05-05 14:47 49.96409 -96.90013 13453 ft 361 kts 99°
2026-05-05 14:47 49.95868 -96.86177 14055 ft 365 kts 99°
2026-05-05 14:47 49.95324 -96.82322 14640 ft 368 kts 99°
2026-05-05 14:48 49.94771 -96.78423 15219 ft 371 kts 100°
2026-05-05 14:48 49.94212 -96.74488 15777 ft 374 kts 99°
2026-05-05 14:48 49.93804 -96.70497 16344 ft 375 kts 90°
2026-05-05 14:48 49.93775 -96.66454 16918 ft 376 kts 87°
2026-05-05 14:49 49.93786 -96.62372 17474 ft 380 kts 87°
2026-05-05 14:49 49.93785 -96.58240 18024 ft 384 kts 88°
2026-05-05 14:49 49.93773 -96.54087 18516 ft 387 kts 88°
2026-05-05 14:49 49.93752 -96.49886 18996 ft 391 kts 88°
2026-05-05 14:50 49.93725 -96.45655 19469 ft 394 kts 88°
2026-05-05 14:50 49.93694 -96.41438 19924 ft 397 kts 88°
2026-05-05 14:50 49.93659 -96.37135 20371 ft 400 kts 88°
2026-05-05 14:50 49.93622 -96.32795 20825 ft 403 kts 89°
2026-05-05 14:51 49.93583 -96.28421 21275 ft 407 kts 89°
2026-05-05 14:51 49.93542 -96.24016 21715 ft 410 kts 89°
2026-05-05 14:51 49.93499 -96.19566 22144 ft 413 kts 89°
2026-05-05 14:51 49.93454 -96.15090 22558 ft 416 kts 89°
2026-05-05 14:52 49.93406 -96.10579 22969 ft 420 kts 89°
2026-05-05 14:52 49.93357 -96.06034 23370 ft 423 kts 89°
2026-05-05 14:52 49.93306 -96.01435 23730 ft 426 kts 90°
2026-05-05 14:52 49.93252 -95.96828 24081 ft 428 kts 90°
2026-05-05 14:53 49.93197 -95.92200 24425 ft 430 kts 90°
2026-05-05 14:53 49.93139 -95.87545 24756 ft 433 kts 90°
2026-05-05 14:53 49.93079 -95.82864 25072 ft 435 kts 90°
2026-05-05 14:53 49.93017 -95.78209 25388 ft 437 kts 90°
2026-05-05 14:54 49.92953 -95.73478 25700 ft 440 kts 90°
2026-05-05 14:54 49.92887 -95.68721 26010 ft 442 kts 90°
2026-05-05 14:54 49.92818 -95.63949 26310 ft 444 kts 90°
2026-05-05 14:54 49.92747 -95.59142 26608 ft 447 kts 90°
2026-05-05 14:55 49.92673 -95.54312 26903 ft 449 kts 90°
2026-05-05 14:55 49.92598 -95.49458 27194 ft 451 kts 90°
2026-05-05 14:55 49.92520 -95.44572 27476 ft 453 kts 90°
2026-05-05 14:55 49.92438 -95.39674 27767 ft 455 kts 90°
2026-05-05 14:56 49.92350 -95.34757 28039 ft 457 kts 90°
2026-05-05 14:56 49.92259 -95.29818 28310 ft 459 kts 90°
2026-05-05 14:56 49.92166 -95.24858 28569 ft 461 kts 90°
2026-05-05 14:56 49.92071 -95.19878 28829 ft 463 kts 90°
2026-05-05 14:57 49.91974 -95.14875 29063 ft 465 kts 90°
2026-05-05 14:57 49.91875 -95.09861 29308 ft 467 kts 90°
2026-05-05 14:57 49.91773 -95.04816 29551 ft 468 kts 90°
2026-05-05 14:57 49.91669 -94.99744 29797 ft 470 kts 90°
2026-05-05 14:58 49.91563 -94.94668 30026 ft 472 kts 90°
2026-05-05 14:58 49.91495 -94.89582 30260 ft 471 kts 88°
2026-05-05 14:58 49.91597 -94.84507 30524 ft 470 kts 85°
2026-05-05 14:58 49.91797 -94.79448 30776 ft 470 kts 84°
2026-05-05 14:59 49.92032 -94.74389 30991 ft 470 kts 84°
2026-05-05 14:59 49.92268 -94.69338 31221 ft 471 kts 84°
2026-05-05 14:59 49.92491 -94.64260 31456 ft 471 kts 85°
2026-05-05 14:59 49.92697 -94.59187 31685 ft 471 kts 85°
2026-05-05 15:00 49.92889 -94.54110 31907 ft 472 kts 85°
2026-05-05 15:00 49.93011 -94.50740 32048 ft 472 kts 85°
2026-05-05 15:00 49.93246 -94.43998 32370 ft 472 kts 85°
2026-05-05 15:00 49.93418 -94.38914 32603 ft 472 kts 85°
2026-05-05 15:01 49.93587 -94.33826 32814 ft 472 kts 85°
2026-05-05 15:01 49.93756 -94.28721 33026 ft 473 kts 85°
2026-05-05 15:01 49.93922 -94.23625 33250 ft 473 kts 85°
2026-05-05 15:01 49.94086 -94.18530 33482 ft 473 kts 85°
2026-05-05 15:02 49.94249 -94.13435 33697 ft 473 kts 85°
2026-05-05 15:02 49.94409 -94.08325 33885 ft 473 kts 86°
2026-05-05 15:02 49.94568 -94.03219 34020 ft 474 kts 86°
2026-05-05 15:02 49.94723 -93.98169 34147 ft 475 kts 86°
2026-05-05 15:03 49.94878 -93.93033 34312 ft 475 kts 86°
2026-05-05 15:03 49.95030 -93.87911 34499 ft 474 kts 86°
2026-05-05 15:03 49.95180 -93.82796 34666 ft 474 kts 86°
2026-05-05 15:03 49.95327 -93.77680 34803 ft 474 kts 86°
2026-05-05 15:04 49.95569 -93.69146 34842 ft 476 kts 86°
2026-05-05 15:04 49.95850 -93.58882 34848 ft 475 kts 86°
2026-05-05 15:05 49.96254 -93.43546 34843 ft 473 kts 86°
2026-05-05 15:06 49.96512 -93.33343 34843 ft 472 kts 86°
2026-05-05 15:06 49.96760 -93.23153 34842 ft 472 kts 86°
2026-05-05 15:07 49.96999 -93.12965 34829 ft 472 kts 86°
2026-05-05 15:07 49.97229 -93.02780 34816 ft 472 kts 87°
2026-05-05 15:08 49.97451 -92.92575 34808 ft 472 kts 87°
2026-05-05 15:08 49.97663 -92.82436 34799 ft 473 kts 87°
2026-05-05 15:09 49.97867 -92.72198 34801 ft 474 kts 87°
2026-05-05 15:09 49.98063 -92.61940 34800 ft 475 kts 87°
2026-05-05 15:10 49.98250 -92.51672 34805 ft 475 kts 87°
2026-05-05 15:10 49.98428 -92.41398 34814 ft 476 kts 87°
2026-05-05 15:11 49.98597 -92.31115 34807 ft 476 kts 88°
2026-05-05 15:11 49.98757 -92.20836 34797 ft 476 kts 88°
2026-05-05 15:12 49.98908 -92.10533 34783 ft 476 kts 88°
2026-05-05 15:12 49.99050 -92.00239 34769 ft 476 kts 88°
2026-05-05 15:13 49.99182 -91.90012 34766 ft 476 kts 88°
2026-05-05 15:13 49.99306 -91.79723 34768 ft 475 kts 88°
2026-05-05 15:14 49.99420 -91.69452 34774 ft 475 kts 88°
2026-05-05 15:14 49.99525 -91.59185 34781 ft 475 kts 88°
2026-05-05 15:15 49.99621 -91.48937 34788 ft 475 kts 88°
2026-05-05 15:15 49.99708 -91.38658 34787 ft 474 kts 88°
2026-05-05 15:16 49.99787 -91.28406 34787 ft 474 kts 88°
2026-05-05 15:16 49.99855 -91.18211 34782 ft 474 kts 89°
2026-05-05 15:17 49.99915 -91.07957 34776 ft 474 kts 89°
2026-05-05 15:17 49.99966 -90.97698 34772 ft 475 kts 89°
2026-05-05 15:18 50.00008 -90.87446 34769 ft 475 kts 89°
2026-05-05 15:18 50.00041 -90.77176 34760 ft 475 kts 89°
2026-05-05 15:19 50.00065 -90.66900 34757 ft 476 kts 89°
2026-05-05 15:19 50.00080 -90.56617 34744 ft 476 kts 89°
2026-05-05 15:20 50.00085 -90.46305 34746 ft 476 kts 89°
2026-05-05 15:20 50.00082 -90.35986 34735 ft 476 kts 89°
2026-05-05 15:21 50.00070 -90.25683 34734 ft 477 kts 90°
2026-05-05 15:21 50.00048 -90.15364 34731 ft 477 kts 90°
2026-05-05 15:22 50.00019 -90.05053 34725 ft 477 kts 90°
2026-05-05 15:22 49.99950 -89.94809 34718 ft 477 kts 91°
2026-05-05 15:23 49.99752 -89.84489 34717 ft 477 kts 91°
2026-05-05 15:23 49.99526 -89.74178 34717 ft 477 kts 91°
2026-05-05 15:24 49.99303 -89.63841 34709 ft 478 kts 91°
2026-05-05 15:24 49.99082 -89.53525 34708 ft 478 kts 91°
2026-05-05 15:25 49.98854 -89.43205 34707 ft 478 kts 92°
2026-05-05 15:25 49.98619 -89.32940 34700 ft 478 kts 92°
2026-05-05 15:26 49.98373 -89.22615 34698 ft 478 kts 92°
2026-05-05 15:26 49.98117 -89.12287 34691 ft 478 kts 92°
2026-05-05 15:27 49.97852 -89.01956 34689 ft 479 kts 92°
2026-05-05 15:27 49.97578 -88.91623 34682 ft 479 kts 92°
2026-05-05 15:28 49.97294 -88.81279 34684 ft 479 kts 92°
2026-05-05 15:28 49.97002 -88.70948 34688 ft 479 kts 92°
2026-05-05 15:29 49.96700 -88.60619 34692 ft 479 kts 92°
2026-05-05 15:29 49.96388 -88.50293 34690 ft 478 kts 92°
2026-05-05 15:30 49.96070 -88.40018 34688 ft 478 kts 92°
2026-05-05 15:30 49.95741 -88.29702 34687 ft 478 kts 92°
2026-05-05 15:31 49.95403 -88.19389 34687 ft 478 kts 92°
2026-05-05 15:31 49.95056 -88.09075 34683 ft 478 kts 93°
2026-05-05 15:32 49.94699 -87.98757 34682 ft 479 kts 93°
2026-05-05 15:32 49.94333 -87.88428 34676 ft 480 kts 93°
2026-05-05 15:33 49.93957 -87.78086 34672 ft 480 kts 93°
2026-05-05 15:33 49.93571 -87.67730 34664 ft 481 kts 93°
2026-05-05 15:34 49.93175 -87.57362 34662 ft 481 kts 93°
2026-05-05 15:34 49.92772 -87.47029 34659 ft 482 kts 93°
2026-05-05 15:35 49.92357 -87.36629 34652 ft 482 kts 94°
2026-05-05 15:35 49.91932 -87.26236 34649 ft 483 kts 94°
2026-05-05 15:36 49.91498 -87.15838 34643 ft 483 kts 94°
2026-05-05 15:36 49.91054 -87.05416 34639 ft 483 kts 94°
2026-05-05 15:37 49.90601 -86.95017 34636 ft 483 kts 94°
2026-05-05 15:37 49.90141 -86.84678 34632 ft 483 kts 94°
2026-05-05 15:38 49.89670 -86.74286 34629 ft 483 kts 94°
2026-05-05 15:38 49.89189 -86.63886 34624 ft 483 kts 94°
2026-05-05 15:39 49.88699 -86.53502 34625 ft 483 kts 94°
2026-05-05 15:39 49.88200 -86.43111 34619 ft 483 kts 94°
2026-05-05 15:40 49.87692 -86.32733 34615 ft 483 kts 95°
2026-05-05 15:40 49.87174 -86.22355 34612 ft 483 kts 95°
2026-05-05 15:41 49.86647 -86.11976 34611 ft 483 kts 95°
2026-05-05 15:41 49.86111 -86.01594 34613 ft 483 kts 95°
2026-05-05 15:42 49.85565 -85.91208 34610 ft 484 kts 95°
2026-05-05 15:42 49.85013 -85.80885 34608 ft 484 kts 95°
2026-05-05 15:43 49.84447 -85.70487 34606 ft 485 kts 95°
2026-05-05 15:43 49.83872 -85.60082 34604 ft 485 kts 95°
2026-05-05 15:44 49.83287 -85.49663 34604 ft 485 kts 96°
2026-05-05 15:44 49.82692 -85.39251 34603 ft 485 kts 96°
2026-05-05 15:45 49.82088 -85.28837 34600 ft 486 kts 96°
2026-05-05 15:45 49.81474 -85.18424 34599 ft 486 kts 96°
2026-05-05 15:46 49.80851 -85.08001 34597 ft 486 kts 96°
2026-05-05 15:46 49.80219 -84.97602 34599 ft 486 kts 96°
2026-05-05 15:47 49.79577 -84.87187 34598 ft 485 kts 96°
2026-05-05 15:47 49.78927 -84.76790 34595 ft 485 kts 96°
2026-05-05 15:48 49.78273 -84.66457 34593 ft 485 kts 97°
2026-05-05 15:48 49.77605 -84.56064 34594 ft 485 kts 97°
2026-05-05 15:49 49.77046 -84.47381 34591 ft 484 kts 97°
2026-05-05 15:49 49.76374 -84.37004 34590 ft 484 kts 97°
2026-05-05 15:50 49.75698 -84.26714 34591 ft 484 kts 97°
2026-05-05 15:50 49.75008 -84.16361 34590 ft 484 kts 97°
2026-05-05 15:51 49.74309 -84.06011 34588 ft 484 kts 97°
2026-05-05 15:51 49.73599 -83.95651 34586 ft 484 kts 97°
2026-05-05 15:52 49.72881 -83.85301 34581 ft 484 kts 98°
2026-05-05 15:52 49.72152 -83.74938 34582 ft 485 kts 98°
2026-05-05 15:53 49.71415 -83.64584 34579 ft 485 kts 98°
2026-05-05 15:53 49.70672 -83.54285 34576 ft 485 kts 98°
2026-05-05 15:54 49.69916 -83.43935 34574 ft 486 kts 98°
2026-05-05 15:54 49.69148 -83.33547 34569 ft 486 kts 98°
2026-05-05 15:55 49.68371 -83.23167 34571 ft 486 kts 98°
2026-05-05 15:55 49.67584 -83.12794 34566 ft 487 kts 98°
2026-05-05 15:56 49.66788 -83.02415 34569 ft 487 kts 99°
2026-05-05 15:56 49.65982 -82.92031 34564 ft 487 kts 99°
2026-05-05 15:57 49.65170 -82.81698 34560 ft 488 kts 99°
2026-05-05 15:57 49.64344 -82.71302 34560 ft 488 kts 99°
2026-05-05 15:58 49.63508 -82.60893 34555 ft 488 kts 99°
2026-05-05 15:58 49.62662 -82.50493 34555 ft 489 kts 99°
2026-05-05 15:59 49.61807 -82.40096 34555 ft 489 kts 99°
2026-05-05 15:59 49.60941 -82.29685 34553 ft 489 kts 100°
2026-05-05 16:00 49.60067 -82.19286 34553 ft 489 kts 100°
2026-05-05 16:00 49.59182 -82.08875 34550 ft 489 kts 100°
2026-05-05 16:01 49.58294 -81.98546 34558 ft 489 kts 100°
2026-05-05 16:01 49.57390 -81.88144 34549 ft 490 kts 101°
2026-05-05 16:02 49.56477 -81.77739 34549 ft 490 kts 101°
2026-05-05 16:02 49.55553 -81.67333 34548 ft 490 kts 101°
2026-05-05 16:03 49.54621 -81.56927 34560 ft 490 kts 101°
2026-05-05 16:03 49.53678 -81.46524 34558 ft 491 kts 101°
2026-05-05 16:04 49.52725 -81.36106 34560 ft 491 kts 101°
2026-05-05 16:04 49.51762 -81.25698 34553 ft 491 kts 101°
2026-05-05 16:05 49.50790 -81.15286 34548 ft 492 kts 101°
2026-05-05 16:05 49.49814 -81.04933 34554 ft 492 kts 102°
2026-05-05 16:06 49.48821 -80.94517 34548 ft 492 kts 102°
2026-05-05 16:06 49.47818 -80.84089 34549 ft 492 kts 102°
2026-05-05 16:07 49.46804 -80.73649 34541 ft 493 kts 102°
2026-05-05 16:07 49.45783 -80.63233 34538 ft 493 kts 102°
2026-05-05 16:08 49.44757 -80.52876 34536 ft 493 kts 102°
2026-05-05 16:08 49.43717 -80.42462 34534 ft 493 kts 102°
2026-05-05 16:09 49.42665 -80.32041 34528 ft 493 kts 102°
2026-05-05 16:09 49.41606 -80.21637 34536 ft 493 kts 102°
2026-05-05 16:10 49.40537 -80.11238 34528 ft 493 kts 102°
2026-05-05 16:10 49.39459 -80.00841 34531 ft 493 kts 102°
2026-05-05 16:11 49.38371 -79.90439 34525 ft 493 kts 102°
2026-05-05 16:12 49.36169 -79.69684 34526 ft 493 kts 103°
2026-05-05 16:13 49.33362 -79.43736 34529 ft 493 kts 103°
2026-05-05 16:13 49.32233 -79.33454 34524 ft 493 kts 103°
2026-05-05 16:14 49.29926 -79.12720 34526 ft 493 kts 103°
2026-05-05 16:15 49.27581 -78.91994 34527 ft 494 kts 103°
2026-05-05 16:16 49.25199 -78.71289 34525 ft 494 kts 103°
2026-05-05 16:17 49.23396 -78.55838 34526 ft 494 kts 103°
2026-05-05 16:18 49.21564 -78.40322 34527 ft 494 kts 104°
2026-05-05 16:19 49.19710 -78.24811 34526 ft 493 kts 104°
2026-05-05 16:19 49.17839 -78.09339 34527 ft 493 kts 104°
2026-05-05 16:20 49.15195 -77.88774 34539 ft 493 kts 106°
2026-05-05 16:22 49.11548 -77.63244 34527 ft 493 kts 106°
2026-05-05 16:23 49.08624 -77.42763 34538 ft 494 kts 106°
2026-05-05 16:23 49.06409 -77.27412 34533 ft 494 kts 106°
2026-05-05 16:24 49.04921 -77.17198 34529 ft 493 kts 107°
2026-05-05 16:25 49.02684 -77.01965 34527 ft 493 kts 107°
2026-05-05 16:25 49.00419 -76.86687 34528 ft 492 kts 107°
2026-05-05 16:26 48.97374 -76.66383 34518 ft 491 kts 107°
2026-05-05 16:27 48.95840 -76.56249 34513 ft 491 kts 107°
2026-05-05 16:27 48.94302 -76.46159 34513 ft 490 kts 107°
2026-05-05 16:28 48.92763 -76.36125 34517 ft 489 kts 108°
2026-05-05 16:28 48.91211 -76.26068 34513 ft 488 kts 108°
2026-05-05 16:29 48.89652 -76.16032 34513 ft 487 kts 108°
2026-05-05 16:29 48.88087 -76.06017 34512 ft 487 kts 108°
2026-05-05 16:30 48.86512 -75.96005 34506 ft 486 kts 108°
2026-05-05 16:30 48.84933 -75.86020 34507 ft 486 kts 108°
2026-05-05 16:31 48.83354 -75.76100 34507 ft 486 kts 108°
2026-05-05 16:31 48.81758 -75.66132 34506 ft 486 kts 108°
2026-05-05 16:32 48.80151 -75.56161 34501 ft 487 kts 108°
2026-05-05 16:32 48.78533 -75.46177 34517 ft 487 kts 108°
2026-05-05 16:33 48.76908 -75.36206 34516 ft 487 kts 108°
2026-05-05 16:33 48.75271 -75.26221 34509 ft 488 kts 108°
2026-05-05 16:34 48.73625 -75.16243 34515 ft 488 kts 108°
2026-05-05 16:34 48.71980 -75.06329 34520 ft 488 kts 107°
2026-05-05 16:35 48.70313 -74.96344 34517 ft 488 kts 108°
2026-05-05 16:35 48.68640 -74.86375 34521 ft 488 kts 107°
2026-05-05 16:36 48.67243 -74.78097 34522 ft 488 kts 108°
2026-05-05 16:36 48.65556 -74.68151 34531 ft 488 kts 107°
2026-05-05 16:37 48.63859 -74.58207 34532 ft 488 kts 108°
2026-05-05 16:37 48.62157 -74.48287 34533 ft 487 kts 107°
2026-05-05 16:38 48.60444 -74.38362 34532 ft 488 kts 107°
2026-05-05 16:38 48.58724 -74.28451 34544 ft 487 kts 107°
2026-05-05 16:39 48.57008 -74.18623 34536 ft 487 kts 107°
2026-05-05 16:39 48.55273 -74.08735 34539 ft 487 kts 107°
2026-05-05 16:40 48.53529 -73.98851 34529 ft 487 kts 107°
2026-05-05 16:40 48.51777 -73.88982 34539 ft 487 kts 107°
2026-05-05 16:41 48.50019 -73.79126 34532 ft 487 kts 107°
2026-05-05 16:41 48.48251 -73.69273 34538 ft 487 kts 107°
2026-05-05 16:42 48.46473 -73.59417 34528 ft 487 kts 107°
2026-05-05 16:42 48.44687 -73.49567 34544 ft 487 kts 107°
2026-05-05 16:43 48.42894 -73.39737 34535 ft 487 kts 107°
2026-05-05 16:43 48.41090 -73.29899 34539 ft 487 kts 107°
2026-05-05 16:44 48.39282 -73.20087 34533 ft 487 kts 107°
2026-05-05 16:44 48.37463 -73.10268 34535 ft 487 kts 107°
2026-05-05 16:45 48.35647 -73.00522 34530 ft 487 kts 107°
2026-05-05 16:45 48.33807 -72.90699 34545 ft 487 kts 107°
2026-05-05 16:46 48.31960 -72.80885 34543 ft 489 kts 107°
2026-05-05 16:46 48.30099 -72.71049 34545 ft 488 kts 107°
2026-05-05 16:47 48.28234 -72.61244 34528 ft 488 kts 107°
2026-05-05 16:47 48.26363 -72.51456 34525 ft 488 kts 107°
2026-05-05 16:48 48.24496 -72.41746 34529 ft 487 kts 108°
2026-05-05 16:48 48.22613 -72.31999 34528 ft 486 kts 107°
2026-05-05 16:49 48.20723 -72.22262 34528 ft 485 kts 108°
2026-05-05 16:49 48.18830 -72.12561 34540 ft 485 kts 108°
2026-05-05 16:50 48.16933 -72.02891 34542 ft 484 kts 108°
2026-05-05 16:50 48.15022 -71.93197 34546 ft 487 kts 108°
2026-05-05 16:51 48.13090 -71.83446 34521 ft 490 kts 108°
2026-05-05 16:51 48.11149 -71.73695 34541 ft 487 kts 108°
2026-05-05 16:52 48.09214 -71.64022 34539 ft 484 kts 108°
2026-05-05 16:52 48.07290 -71.54451 34554 ft 481 kts 108°
2026-05-05 16:53 48.05356 -71.44882 34548 ft 479 kts 108°
2026-05-05 16:53 48.03426 -71.35367 34555 ft 478 kts 108°
2026-05-05 16:54 48.01482 -71.25892 34552 ft 476 kts 109°
2026-05-05 16:54 47.99258 -71.16582 34561 ft 475 kts 112°
2026-05-05 16:55 47.96903 -71.07363 34549 ft 476 kts 112°
2026-05-05 16:55 47.94553 -70.98126 34571 ft 476 kts 112°
2026-05-05 16:56 47.92223 -70.88878 34572 ft 477 kts 112°
2026-05-05 16:56 47.89905 -70.79662 34581 ft 478 kts 112°
2026-05-05 16:57 47.87563 -70.70381 34580 ft 478 kts 112°
2026-05-05 16:57 47.85212 -70.61109 34583 ft 479 kts 112°
2026-05-05 16:58 47.82849 -70.51830 34569 ft 479 kts 112°
2026-05-05 16:58 47.80476 -70.42552 34577 ft 479 kts 112°
2026-05-05 16:59 47.78100 -70.33300 34576 ft 478 kts 112°
2026-05-05 16:59 47.75722 -70.24073 34581 ft 477 kts 112°
2026-05-05 17:00 47.73340 -70.14872 34585 ft 477 kts 112°
2026-05-05 17:00 47.70955 -70.05695 34597 ft 476 kts 112°
2026-05-05 17:01 47.68579 -69.96588 34587 ft 475 kts 112°
2026-05-05 17:01 47.66184 -69.87447 34607 ft 474 kts 112°
2026-05-05 17:02 47.63786 -69.78327 34591 ft 473 kts 112°
2026-05-05 17:02 47.61391 -69.69251 34613 ft 473 kts 112°
2026-05-05 17:03 47.59009 -69.60256 34608 ft 472 kts 113°
2026-05-05 17:03 47.56592 -69.51182 34611 ft 474 kts 113°
2026-05-05 17:04 47.54165 -69.42097 34623 ft 474 kts 113°
2026-05-05 17:04 47.51731 -69.33019 34615 ft 475 kts 113°
2026-05-05 17:05 47.49288 -69.23946 34625 ft 475 kts 114°
2026-05-05 17:05 47.46834 -69.14864 34614 ft 475 kts 114°
2026-05-05 17:06 47.44394 -69.05866 34622 ft 475 kts 114°
2026-05-05 17:06 47.41931 -68.96822 34620 ft 475 kts 114°
2026-05-05 17:07 47.39464 -68.87794 34639 ft 474 kts 114°
2026-05-05 17:07 47.36987 -68.78768 34628 ft 474 kts 114°
2026-05-05 17:08 47.34499 -68.69738 34647 ft 474 kts 114°
2026-05-05 17:08 47.32007 -68.60722 34633 ft 475 kts 115°
2026-05-05 17:09 47.29510 -68.51725 34645 ft 475 kts 115°
2026-05-05 17:09 47.27004 -68.42728 34646 ft 475 kts 115°
2026-05-05 17:10 47.24488 -68.33728 34642 ft 476 kts 115°
2026-05-05 17:10 47.21962 -68.24728 34649 ft 476 kts 115°
2026-05-05 17:11 47.19425 -68.15724 34657 ft 476 kts 115°
2026-05-05 17:11 47.16900 -68.06791 34650 ft 477 kts 115°
2026-05-05 17:12 47.14626 -67.98777 34675 ft 477 kts 115°
2026-05-05 17:12 47.12496 -67.91294 34667 ft 476 kts 115°
2026-05-05 17:13 47.09954 -67.82390 34670 ft 470 kts 115°
2026-05-05 17:13 47.07424 -67.73565 34523 ft 469 kts 115°
2026-05-05 17:14 47.06159 -67.69162 34182 ft 466 kts 116°
2026-05-05 17:14 47.04906 -67.64810 33806 ft 461 kts 116°
2026-05-05 17:14 47.03661 -67.60493 33357 ft 458 kts 116°
2026-05-05 17:14 47.02425 -67.56213 32906 ft 454 kts 116°
2026-05-05 17:15 47.01197 -67.51971 32502 ft 450 kts 116°
2026-05-05 17:15 46.99980 -67.47772 32095 ft 446 kts 116°
2026-05-05 17:15 46.98767 -67.43596 31689 ft 443 kts 116°
2026-05-05 17:15 46.97561 -67.39451 31267 ft 440 kts 116°
2026-05-05 17:16 46.96379 -67.35398 30894 ft 437 kts 116°
2026-05-05 17:16 46.95187 -67.31315 30518 ft 434 kts 116°
2026-05-05 17:16 46.94004 -67.27269 30134 ft 431 kts 116°
2026-05-05 17:16 46.92825 -67.23245 29737 ft 429 kts 117°
2026-05-05 17:17 46.91653 -67.19247 29297 ft 426 kts 117°
2026-05-05 17:17 46.90488 -67.15282 28907 ft 422 kts 117°
2026-05-05 17:17 46.89332 -67.11350 28521 ft 419 kts 117°
2026-05-05 17:17 46.88187 -67.07466 28118 ft 415 kts 117°
2026-05-05 17:18 46.87052 -67.03602 27744 ft 412 kts 116°
2026-05-05 17:18 46.85966 -66.99737 27358 ft 409 kts 116°
2026-05-05 17:18 46.84914 -66.95881 26973 ft 407 kts 115°
2026-05-05 17:18 46.83880 -66.92057 26600 ft 403 kts 115°
2026-05-05 17:19 46.82852 -66.88260 26231 ft 401 kts 115°
2026-05-05 17:19 46.81825 -66.84484 25854 ft 399 kts 115°
2026-05-05 17:19 46.80799 -66.80733 25484 ft 397 kts 116°
2026-05-05 17:19 46.79772 -66.76992 25101 ft 395 kts 116°
2026-05-05 17:20 46.78751 -66.73283 24755 ft 393 kts 116°
2026-05-05 17:20 46.77743 -66.69632 24402 ft 392 kts 116°
2026-05-05 17:20 46.76725 -66.65955 24048 ft 391 kts 116°
2026-05-05 17:20 46.75708 -66.62287 23677 ft 389 kts 116°
2026-05-05 17:21 46.74694 -66.58632 23325 ft 388 kts 116°
2026-05-05 17:21 46.73683 -66.54998 22915 ft 386 kts 116°
2026-05-05 17:21 46.72672 -66.51367 22538 ft 385 kts 116°
2026-05-05 17:22 46.70666 -66.44176 21809 ft 381 kts 116°
2026-05-05 17:22 46.69668 -66.40607 21454 ft 379 kts 116°
2026-05-05 17:22 46.69007 -66.38247 21213 ft 378 kts 116°
2026-05-05 17:22 46.68018 -66.34717 20844 ft 376 kts 116°
2026-05-05 17:23 46.67030 -66.31200 20508 ft 374 kts 116°
2026-05-05 17:23 46.66047 -66.27704 20162 ft 373 kts 116°
2026-05-05 17:23 46.64746 -66.23086 19709 ft 371 kts 116°
2026-05-05 17:23 46.63766 -66.19612 19356 ft 370 kts 116°
2026-05-05 17:24 46.63106 -66.17277 19135 ft 370 kts 116°
2026-05-05 17:24 46.62127 -66.13818 18797 ft 369 kts 116°
2026-05-05 17:24 46.61152 -66.10373 18452 ft 368 kts 116°
2026-05-05 17:24 46.60175 -66.06930 18108 ft 368 kts 116°
2026-05-05 17:25 46.59199 -66.03494 17728 ft 367 kts 116°
2026-05-05 17:25 46.58553 -66.01221 17484 ft 367 kts 116°
2026-05-05 17:25 46.57250 -65.96643 17000 ft 366 kts 116°
2026-05-05 17:25 46.56278 -65.93236 16650 ft 364 kts 116°
2026-05-05 17:26 46.55321 -65.89883 16421 ft 359 kts 116°
2026-05-05 17:26 46.54373 -65.86561 16199 ft 355 kts 116°
2026-05-05 17:26 46.53429 -65.83266 15893 ft 353 kts 116°
2026-05-05 17:26 46.52485 -65.79974 15562 ft 352 kts 116°
2026-05-05 17:27 46.51553 -65.76687 15232 ft 352 kts 112°
2026-05-05 17:27 46.50811 -65.73295 14916 ft 352 kts 108°
2026-05-05 17:27 46.50141 -65.69872 14596 ft 352 kts 108°
2026-05-05 17:27 46.49482 -65.66443 14247 ft 352 kts 107°
2026-05-05 17:28 46.48871 -65.63006 13927 ft 352 kts 106°
2026-05-05 17:28 46.48286 -65.59552 13603 ft 352 kts 105°
2026-05-05 17:28 46.47707 -65.56100 13238 ft 353 kts 105°
2026-05-05 17:28 46.47129 -65.52651 12865 ft 349 kts 105°
2026-05-05 17:29 46.46562 -65.49251 12520 ft 343 kts 105°
2026-05-05 17:29 46.46014 -65.45925 12206 ft 335 kts 104°
2026-05-05 17:29 46.45523 -65.42661 11901 ft 328 kts 104°
2026-05-05 17:29 46.45054 -65.39458 11582 ft 321 kts 103°
2026-05-05 17:30 46.44600 -65.36324 11312 ft 314 kts 103°
2026-05-05 17:30 46.44161 -65.33281 11052 ft 303 kts 103°
2026-05-05 17:30 46.43742 -65.30366 10732 ft 294 kts 103°
2026-05-05 17:30 46.43332 -65.27519 10449 ft 285 kts 103°
2026-05-05 17:31 46.42938 -65.24755 10289 ft 275 kts 103°
2026-05-05 17:31 46.42552 -65.22038 10210 ft 278 kts 103°
2026-05-05 17:31 46.42161 -65.19264 10110 ft 283 kts 103°
2026-05-05 17:31 46.41763 -65.16454 9912 ft 287 kts 103°
2026-05-05 17:32 46.41372 -65.13617 9423 ft 285 kts 105°
2026-05-05 17:32 46.41066 -65.10836 9361 ft 277 kts 104°
2026-05-05 17:32 46.40785 -65.08078 9172 ft 276 kts 103°
2026-05-05 17:32 46.40511 -65.05323 8935 ft 277 kts 103°
2026-05-05 17:33 46.40237 -65.02557 8724 ft 277 kts 103°
2026-05-05 17:33 46.39967 -64.99785 8469 ft 278 kts 104°
2026-05-05 17:33 46.39702 -64.97012 8248 ft 279 kts 103°
2026-05-05 17:33 46.39442 -64.94232 8016 ft 275 kts 103°
2026-05-05 17:34 46.39192 -64.91511 7792 ft 271 kts 103°
2026-05-05 17:34 46.38952 -64.88822 7597 ft 268 kts 103°
2026-05-05 17:34 46.38705 -64.86160 7386 ft 267 kts 101°
2026-05-05 17:34 46.38557 -64.83517 7188 ft 266 kts 99°
2026-05-05 17:35 46.38438 -64.80850 6999 ft 264 kts 99°
2026-05-05 17:35 46.38329 -64.78206 6817 ft 262 kts 99°
2026-05-05 17:35 46.38227 -64.75574 6648 ft 262 kts 99°
2026-05-05 17:35 46.38127 -64.72932 6459 ft 264 kts 99°
2026-05-05 17:36 46.38026 -64.70257 6328 ft 267 kts 99°
2026-05-05 17:36 46.37926 -64.67566 6161 ft 267 kts 99°
2026-05-05 17:36 46.37832 -64.64896 6018 ft 265 kts 99°
2026-05-05 17:36 46.37742 -64.62235 5903 ft 263 kts 100°
2026-05-05 17:37 46.37619 -64.59598 5767 ft 262 kts 101°
2026-05-05 17:37 46.37484 -64.56988 5663 ft 258 kts 101°
2026-05-05 17:37 46.37351 -64.54408 5597 ft 258 kts 101°
2026-05-05 17:37 46.37216 -64.51808 5532 ft 260 kts 101°
2026-05-05 17:38 46.37078 -64.49180 5488 ft 262 kts 101°
2026-05-05 17:38 46.36941 -64.46554 5452 ft 260 kts 101°
2026-05-05 17:38 46.36810 -64.43960 5445 ft 257 kts 101°
2026-05-05 17:38 46.36679 -64.41384 5439 ft 256 kts 101°
2026-05-05 17:39 46.36541 -64.38789 5286 ft 263 kts 101°
2026-05-05 17:39 46.36397 -64.36134 5038 ft 265 kts 101°
2026-05-05 17:39 46.36137 -64.33534 4768 ft 254 kts 120°
2026-05-05 17:39 46.35151 -64.31717 4508 ft 218 kts 162°
2026-05-05 17:40 46.33807 -64.31306 4288 ft 191 kts 192°
2026-05-05 17:40 46.32462 -64.31292 4030 ft 193 kts 189°
2026-05-05 17:40 46.31213 -64.31670 3791 ft 178 kts 206°
2026-05-05 17:40 46.30064 -64.32266 3541 ft 173 kts 204°
2026-05-05 17:41 46.28945 -64.32800 3307 ft 165 kts 204°
2026-05-05 17:41 46.27877 -64.33308 3131 ft 155 kts 204°
2026-05-05 17:41 46.26884 -64.33780 3085 ft 149 kts 205°
2026-05-05 17:41 46.25899 -64.34255 3079 ft 149 kts 205°
2026-05-05 17:42 46.24917 -64.34726 3068 ft 148 kts 204°
2026-05-05 17:42 46.23950 -64.35188 3077 ft 145 kts 205°
2026-05-05 17:42 46.22995 -64.35647 3080 ft 145 kts 205°
2026-05-05 17:42 46.22052 -64.36100 3083 ft 145 kts 205°
2026-05-05 17:43 46.21094 -64.36560 3079 ft 146 kts 205°
2026-05-05 17:43 46.20127 -64.37025 3067 ft 147 kts 204°
2026-05-05 17:43 46.19161 -64.37488 3069 ft 146 kts 204°
2026-05-05 17:43 46.18206 -64.37946 3080 ft 145 kts 204°
2026-05-05 17:44 46.17247 -64.38406 3084 ft 146 kts 204°
2026-05-05 17:44 46.16279 -64.38870 3076 ft 147 kts 205°
2026-05-05 17:44 46.15308 -64.39335 3084 ft 147 kts 205°
2026-05-05 17:44 46.14334 -64.39801 3092 ft 148 kts 204°
2026-05-05 17:45 46.13353 -64.40271 3072 ft 149 kts 204°
2026-05-05 17:45 46.12470 -64.40958 3045 ft 144 kts 230°
2026-05-05 17:45 46.12238 -64.42363 3080 ft 151 kts 258°
2026-05-05 17:45 46.12029 -64.43779 3071 ft 141 kts 233°
2026-05-05 17:46 46.11460 -64.44947 3077 ft 147 kts 240°
2026-05-05 17:46 46.11410 -64.46459 3009 ft 163 kts 271°
2026-05-05 17:46 46.11548 -64.48063 2771 ft 154 kts 252°
2026-05-05 17:46 46.11306 -64.49502 2593 ft 146 kts 253°
2026-05-05 17:47 46.11291 -64.50952 2407 ft 139 kts 258°
2026-05-05 17:47 46.11236 -64.52272 2231 ft 128 kts 254°
2026-05-05 17:47 46.11182 -64.53538 2068 ft 129 kts 255°
2026-05-05 17:47 46.11135 -64.54843 1901 ft 132 kts 257°
2026-05-05 17:48 46.11093 -64.56148 1726 ft 130 kts 258°
2026-05-05 17:48 46.11054 -64.57472 1550 ft 134 kts 257°
2026-05-05 17:48 46.11007 -64.58845 1362 ft 140 kts 259°
2026-05-05 17:48 46.10966 -64.60252 1182 ft 140 kts 259°
2026-05-05 17:49 46.10925 -64.61653 1020 ft 139 kts 257°
2026-05-05 17:49 46.10881 -64.63074 809 ft 143 kts 259°
2026-05-05 17:49 46.10838 -64.64511 631 ft 143 kts 261°
2026-05-05 17:49 46.10795 -64.65936 425 ft 141 kts 263°
2026-05-05 17:50 46.10753 -64.67315 256 ft 132 kts 264°
2026-05-05 17:50 46.10713 -64.68505 233 ft 76 kts 267°
2026-05-05 17:50 46.10697 -64.68977 231 ft 39 kts 267°
2026-05-05 17:50 46.10688 -64.69243 233 ft 21 kts 264°
2026-05-05 17:51 46.10628 -64.69389 232 ft 15 kts 224°
2026-05-05 17:51 46.10602 -64.69420 231 ft 7 kts 204°
2026-05-05 17:51 46.10599 -64.69434 230 ft 3 kts 359°
2026-05-05 17:51 46.10630 -64.69408 233 ft 8 kts 40°
2026-05-05 17:52 46.10667 -64.69332 234 ft 9 kts 68°
2026-05-05 17:52 46.10679 -64.69241 233 ft 14 kts 82°
2026-05-05 17:52 46.10683 -64.69199 232 ft 0 kts 84°
2026-05-05 17:52 46.10684 -64.69176 232 ft 10 kts 84°
2026-05-05 17:53 46.10692 -64.69004 231 ft 20 kts 88°
2026-05-05 17:53 46.10695 -64.68814 234 ft 16 kts 95°
2026-05-05 17:53 46.10695 -64.68683 233 ft 9 kts 79°
2026-05-05 17:53 46.10696 -64.68627 232 ft 1 kts 83°
2026-05-05 17:54 46.10694 -64.68567 231 ft 9 kts 99°
2026-05-05 17:54 46.10691 -64.68496 232 ft 14 kts 94°